Regional Weather Roundup
Issued by NWS

Home | Current Version | Previous Version | Text Only | Print | Product List | Glossary On
Versions: 1 2 3 4 5 6 7 8 9 10 11 12 13 14 15 16 17 18 19 20 21 22 23 24 25 26 27 28 29 30 31 32 33 34 35 36 37 38 39 40 41 42 43 44 45 46 47 48 49 50
000
ASUS43 KOAX 200310
RWRNE

WEATHER ROUNDUP FOR NEBRASKA
NATIONAL WEATHER SERVICE OMAHA NE
1000 PM CDT TUE AUG 19 2014

NOTES: SATELLITE DATA IS BEING USED TO AUGMENT CLOUD COVER ABOVE
       12000 FEET.
       "FAIR" INDICATES FEW OR NO CLOUDS BELOW 12,000 FEET WITH NO
       SIGNIFICANT WEATHER AND/OR OBSTRUCTIONS TO VISIBILITY.

  * THESE STATIONS DO NOT REPORT WEATHER SUCH AS RAIN...SNOW OR FOG.

NEZ001>004-019>022-054>056-200400-
NEBRASKA PANHANDLE

CITY           SKY/WX    TMP DP  RH WIND       PRES   REMARKS
SCOTTSBLUFF    MOCLDY    69  57  65 SE6       29.82S
ALLIANCE       MOCLDY    72  51  47 E12       29.80F
CHADRON        PTCLDY    81  47  30 S21       29.73R
KIMBALL        MOCLDY    69  52  54 SE10      29.89S
SIDNEY         LGT RAIN  66  58  75 S20       29.89F
$$

NEZ057>060-069>072-079>082-200400-
SOUTHWEST NEBRASKA

CITY           SKY/WX    TMP DP  RH WIND       PRES   REMARKS
NORTH PLATTE   CLOUDY    75  68  78 E9        29.78R
IMPERIAL       TSTM      70  60  70 W25G39    29.85R
LEXINGTON      MOCLDY    79  67  67 SE12      29.78S
MCCOOK         PTCLDY    85  59  41 S10       29.76R
OGALLALA       CLOUDY    77  61  57 S6        29.81R
$$

NEZ005>010-023>029-035>040-094-200400-
NORTH CENTRAL NEBRASKA

CITY           SKY/WX    TMP DP  RH WIND       PRES   REMARKS
VALENTINE      CLOUDY    79  65  62 SE9       29.78R
AINSWORTH      MOCLDY    74  66  74 SE9       29.80S
BROKEN BOW     PTCLDY    75  70  84 SE7       29.79S
O`NEILL        MOCLDY    75  68  79 SE7       29.82R
ORD            CLEAR     75  69  81 SE6       29.78R
THEDFORD       MOCLDY    76  66  73 SE5       29.81S
$$

NEZ041-046>049-061>064-073>077-083>087-200400-
SOUTH CENTRAL NEBRASKA

CITY           SKY/WX    TMP DP  RH WIND       PRES   REMARKS
GRAND ISLAND   CLEAR     76  69  79 E6        29.80R
AURORA         CLEAR     75  74  95 E5        29.79S
HASTINGS       CLEAR     79  67  66 SE10      29.79R
HEBRON         CLEAR     75  67  76 SE5       29.78S
HOLDREGE       MOCLDY    76  64  67 SE9       29.78S
KEARNEY *      MOCLDY    73  70  88 E7        29.79S
YORK           CLEAR     75 N/A N/A E7        29.80R
$$

NEZ011>018-030>034-042>045-200400-
NORTHEAST NEBRASKA

CITY           SKY/WX    TMP DP  RH WIND       PRES   REMARKS
NORFOLK        MOCLDY    74  66  76 SE8       29.80R
ALBION         PTCLDY    74  67  76 E3        29.81R
BLAIR          PTCLDY    75  65  70 E5        29.81R
COLUMBUS *     MOCLDY    72  68  88 E6        29.81R
FREMONT        MOCLDY    79  64  60 E6        29.81R
TEKAMAH        PTCLDY    72  67  84 CALM      29.80R
WAYNE          MOCLDY    71  67  85 CALM      29.81S
$$

NEZ050>053-065>068-078-088>093-200400-
SOUTHEAST NEBRASKA

CITY           SKY/WX    TMP DP  RH WIND       PRES   REMARKS
LINCOLN        PTCLDY    82  69  64 SE8       29.80R
OMAHA EPPLEY   MOCLDY    79  64  60 S5        29.80R
BEATRICE       CLEAR     78  73  83 E5        29.79R
FALLS CITY     CLEAR     76  73  91 E5        29.78S
NEBRASKA CITY  CLEAR     77  70  79 SE5       29.80S
PLATTSMOUTH    CLEAR     76  70  80 SE5       29.81R
$$

NEZ044-045-051>053-067-200400-
OMAHA AREA

CITY           SKY/WX    TMP DP  RH WIND       PRES   REMARKS
OMAHA EPPLEY   MOCLDY    79  64  60 S5        29.80R
BLAIR          PTCLDY    75  65  70 E5        29.81R
FREMONT        MOCLDY    79  64  60 E6        29.81R
MILLARD        PTCLDY    78  69  72 SE3       29.79S
OFFUTT AFB     PTCLDY    72  72  99 E5        29.80R
PLATTSMOUTH    CLEAR     76  70  80 SE5       29.81R
WAHOO          FAIR      73  66  78 E5        29.80R
$$



USA.gov is the U.S. government's official web portal to all federal, state and local government web resources and services.